Location: Izdebno
(52.6670°N, 16.2170°E)
Time: 04:46:19
(UTC+02:00)

Transit 2A - Pass Details

Date: 29 February 2024
Orbit: 596 x 956 km, 66.7° (Epoch: 21 April)

Event Time Altitude Azimuth Distance (km) Brightness Sun altitude
Enters shadow 23:40:53 - 312° (NW) 2,919 9.5 -44.5°
Rises 23:40:58 0° 312° (NW) 2,894 - -44.5°
Reaches altitude 10° 23:43:59 10° 335° (NNW) 2,029 - -44.6°
Maximum altitude 23:46:51 16° 14° (NNE) 1,705 - -44.6°
Drops below altitude 10° 23:49:49 10° 52° (NE) 2,136 - -44.7°
Sets 23:53:08 0° 74° (ENE) 3,128 - -44.7°
